Buoy 52912

sailwx.info

Track history (hours):
 
Tides and Currents Weather Stations Pressure Air Temp Water Temp Dewpoint Dewpoint Depression Visibility Wind Speed Wind Dir Waves Ship Positions

Drifting buoy 52912

Last reported at 2014-Oct-21 11:00 UTC. Time now 2014-Oct-21 16:47 UTC.
Position N 07°06' E 159°50'.

Water temperature 30.1 ° C

Date/timePositionNaut miles runAvg speedWind from/ knotsBaromVisibWave heightAir tempDewpointWater temp
2014-Oct-21 11:00N 07°06' E 159°50'0 0.2 30.1
2014-Oct-21 08:00N 07°06' E 159°49'0 0.1 30.4
2014-Oct-21 05:00N 07°06' E 159°49'1 0.3 30.8
2014-Oct-21 03:00N 07°06' E 159°48'1 0.2 30.8
2014-Oct-20 23:00N 07°07' E 159°48'0 0.0 30.0
2014-Oct-20 21:00N 07°07' E 159°48'1 0.3 29.8
2014-Oct-20 19:00N 07°07' E 159°47'0 0.3 29.8
2014-Oct-20 18:00N 07°07' E 159°47'0 0.0 29.8
2014-Oct-20 17:00N 07°07' E 159°47'0 0.4 29.8
2014-Oct-20 16:00N 07°07' E 159°47'0 0.1 29.8
2014-Oct-20 11:00N 07°06' E 159°47'1 0.3 29.9
2014-Oct-20 09:00N 07°06' E 159°46'1 0.5 29.9
2014-Oct-20 07:00N 07°05' E 159°46'1 0.5 30.1
2014-Oct-20 04:00N 07°05' E 159°47'1 0.1 30.2
2014-Oct-19 22:00N 07°05' E 159°46'1 0.3 29.9
2014-Oct-19 20:00N 07°04' E 159°46'1 0.9 29.8
2014-Oct-19 19:00N 07°05' E 159°47'2 0.5 29.8
2014-Oct-19 16:00N 07°05' E 159°48'1 0.2 29.9
2014-Oct-19 10:00N 07°06' E 159°49'1 0.1 30.1
2014-Oct-19 05:00N 07°07' E 159°48'1 0.7 30.5
2014-Oct-19 03:00N 07°08' E 159°49'4 0.5 30.5
2014-Oct-18 19:00N 07°10' E 159°46'0 0.3 29.8
2014-Oct-18 18:00N 07°10' E 159°46'0 0.0 29.8
2014-Oct-18 16:00N 07°10' E 159°46'0 0.0 29.8
2014-Oct-18 15:00N 07°10' E 159°46'2 0.5 29.8
2014-Oct-18 11:00N 07°11' E 159°44'1 0.5 29.9
2014-Oct-18 10:00N 07°11' E 159°44'1 0.4 30.0
2014-Oct-18 08:00N 07°12' E 159°44'0 0.1 30.1
2014-Oct-18 07:00N 07°11' E 159°44'0 0.1 30.2
2014-Oct-18 03:00N 07°12' E 159°43'0 0.0 30.5
2014-Oct-18 02:00N 07°12' E 159°43'1 0.5 30.4
2014-Oct-17 23:00N 07°12' E 159°42'0 0.0 29.9
2014-Oct-17 22:00N 07°12' E 159°42'3 0.5 29.7
2014-Oct-17 16:00N 07°11' E 159°39'0 0.0 29.6
2014-Oct-17 15:00N 07°11' E 159°39'0 0.0 29.6
2014-Oct-17 14:00N 07°11' E 159°39'1 0.3 29.6
2014-Oct-17 11:00N 07°11' E 159°38'1 0.8 29.7
2014-Oct-17 10:00N 07°11' E 159°38'1 0.5 29.7
2014-Oct-17 08:00N 07°11' E 159°37'0 0.1 29.7
2014-Oct-17 07:00N 07°11' E 159°37'1 0.8 29.8
2014-Oct-17 06:00N 07°11' E 159°36'2 0.3 29.8
2014-Oct-17 00:00N 07°10' E 159°34'1 0.7 29.7
2014-Oct-16 23:00N 07°10' E 159°35'3 0.9 29.6
2014-Oct-16 20:00N 07°10' E 159°32'0 0.0 29.5
2014-Oct-16 19:00N 07°10' E 159°32'2 1.1 29.5
2014-Oct-16 17:00N 07°10' E 159°30'4 0.4 29.6
2014-Oct-16 05:00N 07°09' E 159°25'3 0.4 30.0
2014-Oct-15 23:00N 07°08' E 159°23'0 0.0 29.7
2014-Oct-15 21:00N 07°08' E 159°23'2 0.5 29.6
2014-Oct-15 17:00N 07°07' E 159°21'1 1.3 29.6
2014-Oct-15 16:00N 07°07' E 159°20'0 0.0 29.7
2014-Oct-15 15:00N 07°07' E 159°20'0 0.0 29.7
2014-Oct-15 14:00N 07°07' E 159°20'3 0.8 29.7
2014-Oct-15 10:00N 07°03' E 159°20'2 0.5 30.0
2014-Oct-15 06:00N 07°01' E 159°19'0 0.0 30.6
2014-Oct-15 04:00N 07°01' E 159°19'0 0.2 31.1
2014-Oct-15 02:00N 07°01' E 159°19'1 0.4 30.4
2014-Oct-14 22:00N 06°60' E 159°19'1 0.5 29.4
2014-Oct-14 19:00N 06°60' E 159°21'0 0.2 29.4
2014-Oct-14 17:00N 06°60' E 159°21'2 0.8 29.4
2014-Oct-14 15:00N 07°00' E 159°22'1 0.3 29.4
2014-Oct-14 11:00N 07°01' E 159°22'0 0.0 29.4
2014-Oct-14 10:00N 07°01' E 159°22'1 0.3 29.4
2014-Oct-14 07:00N 07°02' E 159°22'0 0.3 29.4
2014-Oct-14 06:00N 07°02' E 159°22'3 1.5 29.3
2014-Oct-14 04:00N 07°04' E 159°20'0 0.0 29.3
2014-Oct-14 03:00N 07°04' E 159°20'1 0.2 29.3
2014-Oct-13 23:00N 07°04' E 159°19'0 0.0 29.2
2014-Oct-13 22:00N 07°04' E 159°19'2 0.8 29.1
2014-Oct-13 20:00N 07°04' E 159°17'5 1.1 29.0
2014-Oct-13 15:00N 07°03' E 159°12'1 0.1 29.4
2014-Oct-13 07:00N 07°04' E 159°11'0 0.4 29.5
2014-Oct-13 06:00N 07°04' E 159°11'1 0.7 29.5
2014-Oct-13 05:00N 07°04' E 159°10'0 0.2 29.5
2014-Oct-13 03:00N 07°05' E 159°10'1 0.4 29.7
2014-Oct-12 23:00N 07°03' E 159°10'0 0.2 29.3
2014-Oct-12 22:00N 07°03' E 159°10'1 0.5 29.3
2014-Oct-12 20:00N 07°03' E 159°09'0 0.0 29.6
2014-Oct-12 19:00N 07°03' E 159°09'1 0.7 29.6
2014-Oct-12 18:00N 07°04' E 159°09'3 0.7 29.6
2014-Oct-12 14:00N 07°03' E 159°06'2 0.3 29.6
2014-Oct-12 07:00N 07°02' E 159°05'1 0.3 29.7
2014-Oct-12 05:00N 07°02' E 159°04'0 0.2 29.7
2014-Oct-12 03:00N 07°02' E 159°04'2 0.6 29.7
2014-Oct-12 00:00N 07°01' E 159°02'0 0.0 29.7
2014-Oct-11 23:00N 07°01' E 159°02'2 0.5 29.7
2014-Oct-11 19:00N 06°60' E 159°01'3 0.6 29.6
2014-Oct-11 14:00N 06°58' E 158°58'1 0.3 29.7
2014-Oct-11 11:00N 06°57' E 158°57'   29.8
Track history (hours):
 
Tides and Currents Weather Stations Pressure Air Temp Water Temp Dewpoint Dewpoint Depression Visibility Wind Speed Wind Dir Waves Ship Positions

Drifting buoy 52912

Last reported at 2014-Oct-21 11:00 UTC. Time now 2014-Oct-21 16:47 UTC.
Position N 07°06' E 159°50'.

Water temperature 30.1 ° C

Date/timePositionNaut miles runAvg speedWind from/ knotsBaromVisibWave heightAir tempDewpointWater temp
2014-Oct-21 11:00N 07°06' E 159°50'0 0.2 30.1
2014-Oct-21 08:00N 07°06' E 159°49'0 0.1 30.4
2014-Oct-21 05:00N 07°06' E 159°49'1 0.3 30.8
2014-Oct-21 03:00N 07°06' E 159°48'1 0.2 30.8
2014-Oct-20 23:00N 07°07' E 159°48'0 0.0 30.0
2014-Oct-20 21:00N 07°07' E 159°48'1 0.3 29.8
2014-Oct-20 19:00N 07°07' E 159°47'0 0.3 29.8
2014-Oct-20 18:00N 07°07' E 159°47'0 0.0 29.8
2014-Oct-20 17:00N 07°07' E 159°47'0 0.4 29.8
2014-Oct-20 16:00N 07°07' E 159°47'0 0.1 29.8
2014-Oct-20 11:00N 07°06' E 159°47'1 0.3 29.9
2014-Oct-20 09:00N 07°06' E 159°46'1 0.5 29.9
2014-Oct-20 07:00N 07°05' E 159°46'1 0.5 30.1
2014-Oct-20 04:00N 07°05' E 159°47'1 0.1 30.2
2014-Oct-19 22:00N 07°05' E 159°46'1 0.3 29.9
2014-Oct-19 20:00N 07°04' E 159°46'1 0.9 29.8
2014-Oct-19 19:00N 07°05' E 159°47'2 0.5 29.8
2014-Oct-19 16:00N 07°05' E 159°48'1 0.2 29.9
2014-Oct-19 10:00N 07°06' E 159°49'1 0.1 30.1
2014-Oct-19 05:00N 07°07' E 159°48'1 0.7 30.5
2014-Oct-19 03:00N 07°08' E 159°49'4 0.5 30.5
2014-Oct-18 19:00N 07°10' E 159°46'0 0.3 29.8
2014-Oct-18 18:00N 07°10' E 159°46'0 0.0 29.8
2014-Oct-18 16:00N 07°10' E 159°46'0 0.0 29.8
2014-Oct-18 15:00N 07°10' E 159°46'2 0.5 29.8
2014-Oct-18 11:00N 07°11' E 159°44'1 0.5 29.9
2014-Oct-18 10:00N 07°11' E 159°44'1 0.4 30.0
2014-Oct-18 08:00N 07°12' E 159°44'0 0.1 30.1
2014-Oct-18 07:00N 07°11' E 159°44'0 0.1 30.2
2014-Oct-18 03:00N 07°12' E 159°43'0 0.0 30.5
2014-Oct-18 02:00N 07°12' E 159°43'1 0.5 30.4
2014-Oct-17 23:00N 07°12' E 159°42'0 0.0 29.9
2014-Oct-17 22:00N 07°12' E 159°42'3 0.5 29.7
2014-Oct-17 16:00N 07°11' E 159°39'0 0.0 29.6
2014-Oct-17 15:00N 07°11' E 159°39'0 0.0 29.6
2014-Oct-17 14:00N 07°11' E 159°39'1 0.3 29.6
2014-Oct-17 11:00N 07°11' E 159°38'1 0.8 29.7
2014-Oct-17 10:00N 07°11' E 159°38'1 0.5 29.7
2014-Oct-17 08:00N 07°11' E 159°37'0 0.1 29.7
2014-Oct-17 07:00N 07°11' E 159°37'1 0.8 29.8
2014-Oct-17 06:00N 07°11' E 159°36'2 0.3 29.8
2014-Oct-17 00:00N 07°10' E 159°34'1 0.7 29.7
2014-Oct-16 23:00N 07°10' E 159°35'3 0.9 29.6
2014-Oct-16 20:00N 07°10' E 159°32'0 0.0 29.5
2014-Oct-16 19:00N 07°10' E 159°32'2 1.1 29.5
2014-Oct-16 17:00N 07°10' E 159°30'4 0.4 29.6
2014-Oct-16 05:00N 07°09' E 159°25'3 0.4 30.0
2014-Oct-15 23:00N 07°08' E 159°23'0 0.0 29.7
2014-Oct-15 21:00N 07°08' E 159°23'2 0.5 29.6
2014-Oct-15 17:00N 07°07' E 159°21'1 1.3 29.6
2014-Oct-15 16:00N 07°07' E 159°20'0 0.0 29.7
2014-Oct-15 15:00N 07°07' E 159°20'0 0.0 29.7
2014-Oct-15 14:00N 07°07' E 159°20'3 0.8 29.7
2014-Oct-15 10:00N 07°03' E 159°20'2 0.5 30.0
2014-Oct-15 06:00N 07°01' E 159°19'0 0.0 30.6
2014-Oct-15 04:00N 07°01' E 159°19'0 0.2 31.1
2014-Oct-15 02:00N 07°01' E 159°19'1 0.4 30.4
2014-Oct-14 22:00N 06°60' E 159°19'1 0.5 29.4
2014-Oct-14 19:00N 06°60' E 159°21'0 0.2 29.4
2014-Oct-14 17:00N 06°60' E 159°21'2 0.8 29.4
2014-Oct-14 15:00N 07°00' E 159°22'1 0.3 29.4
2014-Oct-14 11:00N 07°01' E 159°22'0 0.0 29.4
2014-Oct-14 10:00N 07°01' E 159°22'1 0.3 29.4
2014-Oct-14 07:00N 07°02' E 159°22'0 0.3 29.4
2014-Oct-14 06:00N 07°02' E 159°22'3 1.5 29.3
2014-Oct-14 04:00N 07°04' E 159°20'0 0.0 29.3
2014-Oct-14 03:00N 07°04' E 159°20'1 0.2 29.3
2014-Oct-13 23:00N 07°04' E 159°19'0 0.0 29.2
2014-Oct-13 22:00N 07°04' E 159°19'2 0.8 29.1
2014-Oct-13 20:00N 07°04' E 159°17'5 1.1 29.0
2014-Oct-13 15:00N 07°03' E 159°12'1 0.1 29.4
2014-Oct-13 07:00N 07°04' E 159°11'0 0.4 29.5
2014-Oct-13 06:00N 07°04' E 159°11'1 0.7 29.5
2014-Oct-13 05:00N 07°04' E 159°10'0 0.2 29.5
2014-Oct-13 03:00N 07°05' E 159°10'1 0.4 29.7
2014-Oct-12 23:00N 07°03' E 159°10'0 0.2 29.3
2014-Oct-12 22:00N 07°03' E 159°10'1 0.5 29.3
2014-Oct-12 20:00N 07°03' E 159°09'0 0.0 29.6
2014-Oct-12 19:00N 07°03' E 159°09'1 0.7 29.6
2014-Oct-12 18:00N 07°04' E 159°09'3 0.7 29.6
2014-Oct-12 14:00N 07°03' E 159°06'2 0.3 29.6
2014-Oct-12 07:00N 07°02' E 159°05'1 0.3 29.7
2014-Oct-12 05:00N 07°02' E 159°04'0 0.2 29.7
2014-Oct-12 03:00N 07°02' E 159°04'2 0.6 29.7
2014-Oct-12 00:00N 07°01' E 159°02'0 0.0 29.7
2014-Oct-11 23:00N 07°01' E 159°02'2 0.5 29.7
2014-Oct-11 19:00N 06°60' E 159°01'3 0.6 29.6
2014-Oct-11 14:00N 06°58' E 158°58'1 0.3 29.7
2014-Oct-11 11:00N 06°57' E 158°57'   29.8

Dump ship's entire track history